TimeCDT,TemperatureF,Dew PointF,Humidity,Sea Level PressureIn,VisibilityMPH,Wind Direction,Wind SpeedMPH,Gust SpeedMPH,PrecipitationIn,Events,Conditions,WindDirDegrees,DateUTC
12:15 AM,65.3,51.8,62,29.99,10.0,SE,10.4,-,N/A,,Clear,140,2012-10-03 05:15:00
12:35 AM,64.6,52.0,64,29.99,10.0,SE,10.4,-,N/A,,Clear,140,2012-10-03 05:35:00
12:55 AM,64.6,51.6,63,29.98,10.0,SSE,9.2,-,N/A,,Clear,160,2012-10-03 05:55:00
1:15 AM,64.6,51.1,62,29.97,10.0,SSE,9.2,-,N/A,,Clear,150,2012-10-03 06:15:00
1:35 AM,64.6,50.5,60,29.97,10.0,SSE,10.4,17.3,N/A,,Clear,150,2012-10-03 06:35:00
1:55 AM,64.2,50.4,61,29.97,10.0,SSE,12.7,18.4,N/A,,Clear,160,2012-10-03 06:55:00
2:15 AM,63.9,50.4,61,29.97,10.0,SSE,11.5,-,N/A,,Clear,160,2012-10-03 07:15:00
2:35 AM,63.3,50.4,63,29.96,10.0,SSE,13.8,-,N/A,,Clear,160,2012-10-03 07:35:00
2:55 AM,62.8,50.2,63,29.96,10.0,SSE,10.4,-,N/A,,Clear,160,2012-10-03 07:55:00
3:15 AM,62.6,49.8,63,29.95,10.0,SSE,13.8,-,N/A,,Clear,160,2012-10-03 08:15:00
3:35 AM,62.6,48.9,61,29.95,10.0,SSE,11.5,-,N/A,,Clear,160,2012-10-03 08:35:00
3:55 AM,62.6,48.0,59,29.94,10.0,SSE,13.8,18.4,N/A,,Clear,160,2012-10-03 08:55:00
4:15 AM,62.6,47.3,57,29.94,10.0,SSE,12.7,-,N/A,,Clear,150,2012-10-03 09:15:00
4:35 AM,62.1,47.1,58,29.94,10.0,SSE,10.4,17.3,N/A,,Clear,160,2012-10-03 09:35:00
4:55 AM,61.7,47.1,59,29.94,10.0,SSE,8.1,-,N/A,,Clear,150,2012-10-03 09:55:00
5:15 AM,61.2,46.9,60,29.94,10.0,SSE,8.1,-,N/A,,Clear,150,2012-10-03 10:15:00
5:35 AM,61.0,46.6,59,29.94,10.0,SE,8.1,-,N/A,,Clear,140,2012-10-03 10:35:00
5:55 AM,60.8,46.2,59,29.94,10.0,SE,6.9,-,N/A,,Clear,140,2012-10-03 10:55:00
6:15 AM,60.4,46.2,59,29.95,10.0,SSE,9.2,-,N/A,,Clear,150,2012-10-03 11:15:00
6:55 AM,60.1,46.6,61,29.95,10.0,SSE,9.2,-,N/A,,Clear,160,2012-10-03 11:55:00
7:15 AM,59.9,46.4,61,29.94,10.0,SSE,10.4,-,N/A,,Clear,160,2012-10-03 12:15:00
7:35 AM,59.5,46.4,62,29.94,10.0,SSE,8.1,-,N/A,,Clear,160,2012-10-03 12:35:00
7:55 AM,59.4,46.4,62,29.94,10.0,SSE,11.5,-,N/A,,Clear,160,2012-10-03 12:55:00
8:15 AM,59.9,46.4,61,29.94,10.0,SSE,9.2,-,N/A,,Clear,160,2012-10-03 13:15:00
8:35 AM,60.3,46.4,60,29.95,10.0,SSE,11.5,-,N/A,,Clear,160,2012-10-03 13:35:00
8:55 AM,61.2,46.6,59,29.95,10.0,SSE,11.5,-,N/A,,Clear,160,2012-10-03 13:55:00
9:15 AM,62.6,47.1,57,29.95,10.0,South,11.5,17.3,N/A,,Clear,170,2012-10-03 14:15:00
9:35 AM,64.2,47.8,55,29.95,10.0,South,11.5,18.4,N/A,,Clear,170,2012-10-03 14:35:00
9:55 AM,65.8,48.4,53,29.96,10.0,SSE,11.5,-,N/A,,Clear,160,2012-10-03 14:55:00
10:15 AM,67.6,49.5,52,29.96,10.0,South,10.4,-,N/A,,Clear,170,2012-10-03 15:15:00
10:35 AM,69.6,49.8,49,29.96,10.0,South,13.8,-,N/A,,Clear,170,2012-10-03 15:35:00
10:55 AM,71.1,50.2,48,29.96,10.0,South,12.7,-,N/A,,Clear,170,2012-10-03 15:55:00
11:35 AM,74.1,50.5,43,29.96,10.0,South,15.0,-,N/A,,Clear,180,2012-10-03 16:35:00
11:55 AM,75.4,50.9,42,29.95,10.0,South,10.4,-,N/A,,Clear,170,2012-10-03 16:55:00
12:15 PM,76.6,51.1,41,29.96,10.0,South,10.4,-,N/A,,Clear,190,2012-10-03 17:15:00
12:55 PM,79.3,51.1,37,29.95,10.0,South,9.2,-,N/A,,Clear,190,2012-10-03 17:55:00
1:15 PM,80.2,50.7,36,29.94,10.0,South,9.2,-,N/A,,Clear,190,2012-10-03 18:15:00
1:35 PM,81.1,51.1,35,29.94,10.0,SSW,9.2,-,N/A,,Clear,200,2012-10-03 18:35:00
1:55 PM,82.2,51.3,34,29.93,10.0,South,8.1,-,N/A,,Clear,170,2012-10-03 18:55:00
2:35 PM,84.6,48.7,29,29.92,10.0,SSW,9.2,-,N/A,,Clear,210,2012-10-03 19:35:00
2:55 PM,85.3,48.4,28,29.91,10.0,SW,6.9,-,N/A,,Clear,220,2012-10-03 19:55:00
3:15 PM,86.0,48.7,27,29.91,10.0,South,9.2,-,N/A,,Clear,190,2012-10-03 20:15:00
3:35 PM,86.7,48.7,27,29.90,10.0,South,9.2,-,N/A,,Clear,190,2012-10-03 20:35:00
3:55 PM,87.3,48.6,26,29.90,10.0,SSW,9.2,-,N/A,,Clear,210,2012-10-03 20:55:00
4:15 PM,87.4,48.0,25,29.90,10.0,South,9.2,16.1,N/A,,Clear,190,2012-10-03 21:15:00
4:35 PM,87.8,47.1,24,29.90,10.0,SW,11.5,-,N/A,,Clear,220,2012-10-03 21:35:00
4:55 PM,88.2,46.9,24,29.90,10.0,SW,8.1,-,N/A,,Clear,220,2012-10-03 21:55:00
5:15 PM,88.3,47.7,24,29.90,10.0,SSW,10.4,20.7,N/A,,Clear,200,2012-10-03 22:15:00
5:55 PM,88.2,47.7,25,29.89,10.0,South,11.5,-,N/A,,Clear,190,2012-10-03 22:55:00
6:15 PM,87.8,46.9,24,29.89,10.0,SSW,11.5,-,N/A,,Clear,200,2012-10-03 23:15:00
6:35 PM,87.6,47.1,25,29.90,10.0,SSW,11.5,-,N/A,,Clear,200,2012-10-03 23:35:00
6:55 PM,86.9,47.1,25,29.90,10.0,South,9.2,-,N/A,,Clear,190,2012-10-03 23:55:00
7:15 PM,85.6,49.1,28,29.90,10.0,South,9.2,-,N/A,,Clear,190,2012-10-04 00:15:00
7:55 PM,82.6,50.2,32,29.91,10.0,South,11.5,-,N/A,,Clear,170,2012-10-04 00:55:00
8:35 PM,79.5,54.5,42,29.92,10.0,South,13.8,-,N/A,,Clear,170,2012-10-04 01:35:00
8:55 PM,78.4,54.3,43,29.93,10.0,South,11.5,16.1,N/A,,Clear,170,2012-10-04 01:55:00
9:35 PM,76.1,55.4,49,29.94,10.0,South,12.7,-,N/A,,Clear,180,2012-10-04 02:35:00
9:55 PM,75.4,55.0,49,29.95,10.0,South,12.7,19.6,N/A,,Clear,180,2012-10-04 02:55:00
10:15 PM,74.8,54.7,49,29.95,10.0,South,16.1,-,N/A,,Clear,180,2012-10-04 03:15:00
10:35 PM,74.7,54.1,49,29.95,10.0,South,17.3,24.2,N/A,,Clear,190,2012-10-04 03:35:00
10:55 PM,75.0,53.4,47,29.95,10.0,South,16.1,23.0,N/A,,Clear,190,2012-10-04 03:55:00
11:15 PM,75.2,52.7,45,29.96,10.0,South,18.4,23.0,N/A,,Clear,180,2012-10-04 04:15:00
11:35 PM,75.0,52.5,45,29.97,10.0,South,13.8,-,N/A,,Clear,190,2012-10-04 04:35:00
11:55 PM,74.1,53.1,48,29.97,10.0,South,15.0,21.9,N/A,,Clear,190,2012-10-04 04:55:00